ELECTRON R/B (44074 NORAD) Tracking and Keplerian Element Data

This shows tracking and keplerian element data for the satellite.

Feedback or suggestion? Click here.




ElementValue
Catalog44074
NameELECTRON R/B
Epoch Orbit411
Epoch Day114.52552164
Epoch Year2019
RAAN293.1159
Inclination39.5144
Eccentricity0.00116
Argument of Perigee134.2346
Mean Anonmoly225.9527
Mean Motion15.4740462
Decay Rate8.641E-05
L11 44074U 19016B 19114.52552164 .00008641 00000-0 16804-3 0 9993
L22 44074 39.5144 293.1159 0011600 134.2346 225.9527 15.47404620 4119



Live tracking and technical data element details for ELECTRON R/B (NORAD 44074). ELECTRON R/B can be tracked NOW for your location showing map with azimuth and elevation plus other details from your city location.







IsCatalogInMostPopularTable: catalog: 44074, numindb: 216
Update: records affected: 1



GetName: 44074 ELECTRON R/B

Hit Count: updated at: Sun, 28 May 2023 19:10:21 GMT